Weather in Hartford

United States     41°45′55″N   72°40′10″W
temp.,
°C
wind,
m/s
gust,
m/s
humid.,
%
clouds,
%
prec.,
mm/h
press.,
hPa
HPBL,
m
16 may, sun
sun1623:00+14sse116581 0.0 102321
02:00+12w1167100 0.0 102312
05:00+12nw1165100 0.1 102426
08:00+13s1281100 0.4 1025125
11:00+23w243097 0.0 10242767
14:00+20s454562 0.3 10231239
17:00+17ssw395894 0.3 1023766
20:00+14s1370100 0.5 1024126
17 may, mon
mon1723:00+13wnw126990 0.0 102479
02:00+11sw11775 0.0 102427
05:00+10wsw11825 0.0 102523
08:00+15nw126398 0.0 1026275
11:00+22wnw12405 0.0 10251463
14:00+20sw2345100 0.0 1024968
17:00+19s354815 0.0 1024364
20:00+16ssw265897 0.1 1024194
18 may, tue
tue1823:00+15wsw28594 0.0 1025280
02:00+12sw1171100 0.0 102534
05:00+12sw1377100 0.0 102477
08:00+16w256680 0.0 1026343
11:00+21wnw484265 0.0 10251831
14:00+23wnw3640100 0.0 10232388
17:00+21nw3651100 0.0 1022541
20:00+18w257131 0.0 102397
19 may, wed
wed1923:00+16w2107149 0.1 1024312
02:00+14nw11825 0.1 102416
05:00+13nw118572 0.0 102513
08:00+18nw24644 0.0 1025296
11:00+25nnw25365 0.0 10251740
14:00+28nw353237 0.0 10242671
17:00+27n34369 0.0 10242139
20:00+22w11570 0.0 102412
20 may, thu
thu2023:00+19nw11660 0.0 102511
02:00+17nnw01740 0.0 102611
05:00+15nne11830 0.0 102718
08:00+19e23680 0.0 1029391
11:00+25se22470 0.0 1029964
14:00+28s2237100 0.0 10281994
17:00+23s4642100 0.0 1028584
20:00+17s3654100 0.0 1029325